Hauptseite
METAR-TAF:

METAR-TAF

Flughäfen :

Militärflugplatz Payerne

Payerne, Schweiz

Breite: 46-49N, Länge: 006-57E, Höhe: 490 m

Beobachtung

Neuester Wetterbericht von vor 18 Minuten, um 19:50 UTC
Windstille
Temperatur 0°C
Luftfeuchtigkeit 80%
Luftdruck 1019 hPa
Sichtweite: 6000 m
Durchbrochene Bewölkung in der Höhe von 9400 ft

METAR: LSMP 151950Z AUTO 00000KT 6000NDV BKN094 M00/M03 Q1019 RMK

Zeit: 21:08 (20:08 UTC)


TAF: fehlend

Wetterbeobachtungen und Prognosen von mehr als 4000 Flughäfen (METAR und TAF Bericht).

Die verfügbaren Stationen werden durch gelbe und rote Markierungen auf der Karte dargestellt.

Führen Sie die Maus auf sie, um den Namen der Station zu sehen.

Darauf klicken, um die Beobachtung von Wetterbeobachtungen und Prognosen zu sehen.

Um die Karte zu ändern : klicken Sie auf den grünen Tasten mit einem schwarzen Kreuz Zum Vergrößern, auf den grünen Button mit einem Gedankenstrich zu verkleinern, oder auf die grünen Pfeile für benachbarte Karten.


METAR-TAF: